QPF
0.00 0.00 0.00 0.00 0.00 0.00 0.00 0.00 0.00 0.00 0.00 0.00 0.00 0.00 0.00 0.00 0.00 0.00 0.00 0.00 0.00 0.00 0.00 0.00 0.00 0.00 0.00 0.00 0.00 0.00 0.00 0.01 0.01 0.02 0.03 0.04 0.05 0.06
0.00 0.00 0.00 0.00 0.00 0.00 0.00 0.00 0.00 0.00 0.00 0.00 0.00 0.00 0.00 0.00 0.00 0.00 0.00 0.00 0.00 0.00 0.00 0.00 0.00 0.00 0.00 0.00 0.00 0.00 0.00 0.00 0.00 0.01 0.01 0.01 0.02 0.02
0.01 0.00 0.00 0.00 0.00 0.00 0.00 0.00 0.00 0.00 0.00 0.00 0.00 0.00 0.00 0.00 0.00 0.00 0.00 0.00 0.00 0.00 0.00 0.00 0.00 0.00 0.00 0.00 0.00 0.00 0.00 0.00 0.00 0.00 0.00 0.00 0.01 0.01
0.01 0.01 0.00 0.00 0.00 0.00 0.00 0.00 0.00 0.00 0.00 0.00 0.00 0.00 0.00 0.00 0.00 0.00 0.00 0.00 0.00 0.00 0.00 0.00 0.00 0.00 0.00 0.00 0.00 0.00 0.00 0.00 0.00 0.00 0.00 0.00 0.00 0.01
0.01 0.01 0.00 0.00 0.00 0.00 0.00 0.00 0.01 0.01 0.01 0.00 0.00 0.00 0.00 0.00 0.00 0.00 0.00 0.00 0.00 0.00 0.00 0.00 0.00 0.00 0.00 0.00 0.00 0.00 0.00 0.00 0.00 0.00 0.00 0.00 0.00 0.00
0.01 0.01 0.01 0.01 0.01 0.01 0.01 0.01 0.01 0.02 0.02 0.01 0.01 0.00 0.00 0.00 0.00 0.00 0.00 0.00 0.00 0.00 0.00 0.00 0.00 0.00 0.00 0.00 0.00 0.00 0.00 0.00 0.00 0.00 0.00 0.00 0.00 0.00
0.03 0.03 0.02 0.02 0.01 0.01 0.01 0.01 0.01 0.01 0.01 0.01 0.01 0.00 0.00 0.00 0.00 0.00 0.00 0.00 0.00 0.00 0.00 0.00 0.00 0.00 0.00 0.00 0.00 0.00 0.00 0.00 0.00 0.00 0.00 0.00 0.00 0.00
0.04 0.03 0.02 0.01 0.01 0.01 0.01 0.00 0.00 0.01 0.00 0.00 0.00 0.00 0.00 0.00 0.00 0.00 0.00 0.00 0.00 0.00 0.00 0.00 0.00 0.00 0.00 0.00 0.00 0.00 0.00 0.00 0.00 0.00 0.00 0.00 0.00 0.00
0.03 0.03 0.02 0.01 0.02 0.02 0.01 0.01 0.01 0.01 0.01 0.01 0.01 0.00 0.00 0.00 0.00 0.00 0.00 0.00 0.00 0.00 0.00 0.00 0.00 0.00 0.00 0.00 0.00 0.00 0.00 0.00 0.00 0.00 0.00 0.00 0.00 0.00
0.03 0.03 0.03 0.03 0.03 0.03 0.03 0.02 0.02 0.02 0.02 0.02 0.01 0.01 0.00 0.00 0.00 0.00 0.00 0.00 0.00 0.00 0.00 0.00 0.00 0.00 0.00 0.00 0.00 0.00 0.00 0.00 0.01 0.00 0.00 0.00 0.00 0.00
0.04 0.03 0.03 0.03 0.03 0.04 0.03 0.03 0.02 0.02 0.03 0.02 0.01 0.01 0.01 0.01 0.01 0.01 0.01 0.01 0.00 0.00 0.00 0.00 0.00 0.00 0.00 0.00 0.00 0.00 0.00 0.00 0.00 0.00 0.00 0.00 0.00 0.00
0.06 0.06 0.06 0.06 0.06 0.05 0.04 0.03 0.03 0.03 0.03 0.03 0.03 0.02 0.02 0.02 0.02 0.02 0.02 0.02 0.01 0.01 0.00 0.00 0.00 0.00 0.00 0.00 0.00 0.00 0.00 0.00 0.00 0.00 0.00 0.00 0.00 0.00
0.08 0.07 0.07 0.08 0.08 0.07 0.07 0.06 0.06 0.06 0.05 0.05 0.06 0.05 0.05 0.04 0.04 0.04 0.03 0.03 0.02 0.01 0.00 0.00 0.00 0.00 0.00 0.00 0.00 0.00 0.00 0.00 0.00 0.00 0.00 0.00 0.00 0.00
0.05 0.05 0.06 0.07 0.07 0.08 0.08 0.08 0.08 0.07 0.06 0.05 0.05 0.04 0.04 0.03 0.03 0.03 0.03 0.02 0.02 0.01 0.00 0.00 0.01 0.00 0.00 0.00 0.00 0.00 0.00 0.00 0.00 0.00 0.00 0.00 0.00 0.00
0.04 0.05 0.05 0.05 0.05 0.05 0.05 0.05 0.04 0.03 0.03 0.03 0.02 0.01 0.01 0.01 0.01 0.01 0.01 0.01 0.01 0.01 0.00 0.00 0.01 0.01 0.01 0.01 0.00 0.00 0.00 0.00 0.00 0.00 0.00 0.00 0.00 0.00
0.06 0.05 0.05 0.05 0.05 0.04 0.04 0.04 0.04 0.04 0.04 0.03 0.02 0.01 0.01 0.01 0.01 0.01 0.01 0.01 0.01 0.00 0.00 0.00 0.01 0.01 0.01 0.01 0.01 0.00 0.00 0.00 0.00 0.00 0.00 0.00 0.00 0.00
0.10 0.10 0.09 0.08 0.08 0.07 0.06 0.06 0.05 0.05 0.04 0.04 0.03 0.02 0.02 0.01 0.01 0.01 0.01 0.01 0.01 0.00 0.00 0.00 0.01 0.01 0.02 0.02 0.02 0.01 0.01 0.00 0.00 0.01 0.01 0.01 0.00 0.00
0.06 0.05 0.04 0.03 0.03 0.03 0.03 0.04 0.04 0.04 0.04 0.03 0.03 0.02 0.02 0.02 0.01 0.01 0.01 0.01 0.01 0.00 0.00 0.01 0.01 0.02 0.01 0.01 0.01 0.01 0.01 0.01 0.01 0.02 0.02 0.01 0.01 0.00
0.06 0.05 0.03 0.02 0.02 0.02 0.03 0.04 0.05 0.06 0.06 0.07 0.06 0.05 0.04 0.03 0.03 0.03 0.02 0.02 0.02 0.01 0.01 0.02 0.03 0.03 0.02 0.01 0.01 0.01 0.02 0.01 0.02 0.02 0.02 0.01 0.01 0.01
0.04 0.04 0.03 0.03 0.03 0.03 0.03 0.03 0.03 0.04 0.05 0.05 0.05 0.04 0.04 0.04 0.04 0.03 0.03 0.03 0.03 0.02 0.02 0.02 0.03 0.03 0.04 0.03 0.02 0.02 0.03 0.03 0.03 0.02 0.02 0.02 0.01 0.01
0.02 0.02 0.02 0.02 0.02 0.02 0.01 0.01 0.01 0.01 0.01 0.01 0.01 0.01 0.01 0.01 0.01 0.02 0.02 0.02 0.03 0.03 0.03 0.02 0.03 0.04 0.05 0.04 0.03 0.02 0.02 0.03 0.04 0.04 0.03 0.02 0.02 0.01
0.01 0.01 0.00 0.00 0.00 0.00 0.00 0.00 0.00 0.00 0.00 0.00 0.00 0.00 0.00 0.01 0.01 0.02 0.02 0.03 0.03 0.03 0.03 0.03 0.03 0.04 0.05 0.05 0.04 0.02 0.02 0.02 0.03 0.03 0.03 0.03 0.03 0.02
0.01 0.00 0.00 0.00 0.00 0.00 0.00 0.00 0.00 0.00 0.00 0.00 0.00 0.01 0.01 0.02 0.03 0.03 0.04 0.04 0.04 0.05 0.06 0.05 0.05 0.04 0.05 0.05 0.05 0.03 0.02 0.02 0.03 0.04 0.03 0.04 0.04 0.04
MSLP
1019.89 1020.22 1020.56 1020.89 1021.18 1021.40 1021.54 1021.59 1021.56 1021.46 1021.33 1021.16 1020.99 1020.81 1020.62 1020.43 1020.24 1020.05 1019.87 1019.71 1019.57 1019.46 1019.38 1019.31 1019.26 1019.19 1019.10 1018.98 1018.82 1018.65 1018.46 1018.30 1018.17 1018.10 1018.09 1018.14 1018.24 1018.37
1019.54 1019.83 1020.14 1020.45 1020.71 1020.93 1021.07 1021.14 1021.15 1021.12 1021.04 1020.93 1020.81 1020.66 1020.50 1020.31 1020.10 1019.87 1019.65 1019.44 1019.25 1019.10 1018.99 1018.92 1018.87 1018.83 1018.77 1018.68 1018.56 1018.41 1018.25 1018.09 1017.95 1017.85 1017.80 1017.82 1017.88 1017.98
1019.19 1019.47 1019.76 1020.03 1020.28 1020.48 1020.63 1020.72 1020.76 1020.76 1020.73 1020.68 1020.59 1020.48 1020.34 1020.15 1019.93 1019.68 1019.41 1019.15 1018.92 1018.73 1018.59 1018.50 1018.45 1018.41 1018.38 1018.33 1018.25 1018.13 1018.00 1017.85 1017.72 1017.62 1017.56 1017.55 1017.59 1017.67
1018.87 1019.14 1019.41 1019.67 1019.89 1020.08 1020.21 1020.31 1020.36 1020.39 1020.39 1020.37 1020.32 1020.23 1020.11 1019.93 1019.71 1019.44 1019.15 1018.86 1018.59 1018.36 1018.19 1018.07 1018.01 1017.97 1017.95 1017.92 1017.86 1017.78 1017.68 1017.56 1017.45 1017.36 1017.30 1017.29 1017.31 1017.37
1018.55 1018.82 1019.08 1019.32 1019.53 1019.69 1019.81 1019.89 1019.93 1019.96 1019.96 1019.96 1019.92 1019.86 1019.75 1019.59 1019.38 1019.12 1018.83 1018.52 1018.24 1017.99 1017.79 1017.64 1017.55 1017.50 1017.47 1017.44 1017.40 1017.34 1017.26 1017.17 1017.07 1017.00 1016.95 1016.94 1016.96 1017.02
1018.21 1018.48 1018.74 1018.97 1019.15 1019.28 1019.36 1019.41 1019.42 1019.42 1019.41 1019.39 1019.36 1019.30 1019.21 1019.08 1018.89 1018.66 1018.39 1018.10 1017.82 1017.57 1017.35 1017.19 1017.07 1016.99 1016.94 1016.89 1016.84 1016.79 1016.71 1016.64 1016.56 1016.50 1016.47 1016.47 1016.49 1016.55
1017.82 1018.10 1018.34 1018.55 1018.70 1018.80 1018.84 1018.83 1018.80 1018.75 1018.70 1018.65 1018.60 1018.54 1018.46 1018.35 1018.21 1018.02 1017.80 1017.56 1017.31 1017.07 1016.85 1016.67 1016.53 1016.42 1016.33 1016.25 1016.18 1016.11 1016.04 1015.96 1015.90 1015.85 1015.83 1015.84 1015.87 1015.93
1017.37 1017.63 1017.86 1018.05 1018.17 1018.22 1018.22 1018.16 1018.06 1017.95 1017.84 1017.74 1017.66 1017.59 1017.52 1017.44 1017.34 1017.21 1017.05 1016.86 1016.66 1016.46 1016.26 1016.07 1015.91 1015.77 1015.64 1015.53 1015.42 1015.33 1015.24 1015.17 1015.11 1015.07 1015.06 1015.07 1015.11 1015.18
1016.86 1017.10 1017.31 1017.47 1017.56 1017.58 1017.53 1017.41 1017.26 1017.08 1016.91 1016.76 1016.63 1016.54 1016.46 1016.40 1016.34 1016.26 1016.17 1016.04 1015.90 1015.74 1015.56 1015.38 1015.21 1015.04 1014.88 1014.73 1014.59 1014.47 1014.37 1014.28 1014.23 1014.20 1014.19 1014.22 1014.26 1014.33
1016.31 1016.53 1016.72 1016.86 1016.92 1016.91 1016.82 1016.67 1016.46 1016.23 1016.00 1015.79 1015.62 1015.49 1015.40 1015.35 1015.31 1015.27 1015.22 1015.16 1015.06 1014.94 1014.79 1014.62 1014.44 1014.25 1014.06 1013.89 1013.73 1013.58 1013.47 1013.38 1013.32 1013.30 1013.30 1013.33 1013.38 1013.45
1015.78 1015.97 1016.14 1016.26 1016.32 1016.29 1016.18 1016.00 1015.76 1015.49 1015.22 1014.96 1014.74 1014.57 1014.46 1014.39 1014.35 1014.33 1014.30 1014.26 1014.20 1014.10 1013.97 1013.81 1013.63 1013.43 1013.23 1013.04 1012.87 1012.71 1012.59 1012.51 1012.46 1012.44 1012.45 1012.48 1012.54 1012.60
1015.32 1015.49 1015.64 1015.75 1015.80 1015.77 1015.66 1015.47 1015.21 1014.92 1014.62 1014.32 1014.06 1013.85 1013.70 1013.59 1013.53 1013.49 1013.46 1013.42 1013.36 1013.27 1013.15 1012.99 1012.81 1012.61 1012.41 1012.21 1012.04 1011.89 1011.77 1011.69 1011.65 1011.64 1011.66 1011.70 1011.75 1011.80
1014.97 1015.11 1015.24 1015.35 1015.39 1015.37 1015.26 1015.08 1014.83 1014.53 1014.21 1013.89 1013.59 1013.34 1013.13 1012.98 1012.87 1012.79 1012.72 1012.66 1012.57 1012.47 1012.33 1012.17 1011.99 1011.80 1011.60 1011.41 1011.25 1011.11 1011.01 1010.95 1010.92 1010.92 1010.94 1010.98 1011.02 1011.06
1014.74 1014.86 1014.97 1015.06 1015.10 1015.07 1014.97 1014.79 1014.55 1014.25 1013.92 1013.58 1013.26 1012.96 1012.71 1012.50 1012.32 1012.18 1012.06 1011.94 1011.82 1011.68 1011.53 1011.36 1011.18 1010.99 1010.81 1010.64 1010.49 1010.38 1010.29 1010.24 1010.22 1010.23 1010.25 1010.28 1010.32 1010.35
1014.63 1014.72 1014.79 1014.85 1014.87 1014.83 1014.72 1014.54 1014.30 1014.00 1013.66 1013.31 1012.96 1012.63 1012.32 1012.05 1011.82 1011.61 1011.42 1011.25 1011.07 1010.90 1010.72 1010.54 1010.35 1010.18 1010.01 1009.87 1009.74 1009.65 1009.58 1009.54 1009.53 1009.53 1009.55 1009.57 1009.59 1009.61
1014.59 1014.63 1014.67 1014.68 1014.65 1014.57 1014.44 1014.24 1013.98 1013.67 1013.32 1012.95 1012.58 1012.22 1011.88 1011.56 1011.26 1011.00 1010.75 1010.52 1010.30 1010.09 1009.89 1009.69 1009.51 1009.35 1009.20 1009.08 1008.98 1008.91 1008.85 1008.82 1008.80 1008.80 1008.80 1008.81 1008.81 1008.81
1014.57 1014.57 1014.54 1014.49 1014.40 1014.26 1014.07 1013.82 1013.53 1013.19 1012.83 1012.45 1012.06 1011.68 1011.31 1010.95 1010.62 1010.31 1010.02 1009.74 1009.49 1009.25 1009.04 1008.84 1008.67 1008.52 1008.39 1008.29 1008.21 1008.15 1008.10 1008.06 1008.03 1008.00 1007.98 1007.97 1007.95 1007.93
1014.53 1014.47 1014.38 1014.26 1014.08 1013.87 1013.60 1013.29 1012.95 1012.58 1012.19 1011.79 1011.39 1010.99 1010.61 1010.24 1009.89 1009.55 1009.24 1008.94 1008.67 1008.42 1008.20 1008.01 1007.85 1007.71 1007.60 1007.51 1007.44 1007.38 1007.32 1007.27 1007.22 1007.17 1007.12 1007.07 1007.03 1007.00
1014.43 1014.33 1014.19 1013.99 1013.73 1013.43 1013.08 1012.70 1012.30 1011.88 1011.46 1011.05 1010.64 1010.25 1009.86 1009.50 1009.14 1008.80 1008.48 1008.18 1007.90 1007.65 1007.43 1007.25 1007.09 1006.97 1006.87 1006.79 1006.71 1006.64 1006.57 1006.50 1006.41 1006.33 1006.24 1006.16 1006.10 1006.05
1014.29 1014.17 1013.98 1013.72 1013.39 1013.01 1012.59 1012.14 1011.68 1011.22 1010.78 1010.35 1009.94 1009.55 1009.18 1008.82 1008.48 1008.15 1007.83 1007.53 1007.26 1007.01 1006.79 1006.61 1006.46 1006.33 1006.23 1006.14 1006.06 1005.97 1005.88 1005.77 1005.65 1005.53 1005.40 1005.29 1005.19 1005.12
1014.14 1014.01 1013.80 1013.49 1013.11 1012.67 1012.19 1011.69 1011.19 1010.70 1010.24 1009.80 1009.39 1009.02 1008.66 1008.32 1007.99 1007.66 1007.35 1007.06 1006.78 1006.53 1006.31 1006.12 1005.96 1005.83 1005.71 1005.61 1005.50 1005.39 1005.26 1005.12 1004.96 1004.79 1004.63 1004.47 1004.34 1004.24
1013.99 1013.88 1013.66 1013.34 1012.94 1012.47 1011.95 1011.42 1010.90 1010.39 1009.92 1009.48 1009.08 1008.71 1008.37 1008.03 1007.71 1007.39 1007.08 1006.77 1006.48 1006.22 1005.98 1005.77 1005.59 1005.43 1005.30 1005.17 1005.03 1004.89 1004.73 1004.54 1004.34 1004.13 1003.92 1003.73 1003.56 1003.42
1013.88 1013.79 1013.58 1013.27 1012.86 1012.39 1011.87 1011.33 1010.80 1010.30 1009.83 1009.40 1009.01 1008.64 1008.30 1007.97 1007.63 1007.30 1006.97 1006.64 1006.32 1006.03 1005.75 1005.51 1005.30 1005.11 1004.94 1004.78 1004.61 1004.44 1004.24 1004.02 1003.78 1003.53 1003.28 1003.04 1002.83 1002.65
Thickness
5710 5709 5708 5706 5705 5703 5702 5700 5695 5690 5690 5692 5694 5696 5696 5695 5695 5694 5692 5691 5690 5688 5686 5685 5684 5683 5682 5681 5680 5679 5679 5678 5678 5678 5678 5678 5678 5678
5707 5706 5705 5704 5702 5701 5699 5697 5695 5691 5688 5690 5690 5692 5692 5692 5691 5690 5689 5688 5687 5685 5684 5683 5681 5680 5680 5679 5678 5677 5676 5676 5675 5675 5674 5674 5675 5675
5704 5703 5702 5701 5699 5697 5695 5693 5691 5689 5686 5687 5687 5688 5687 5688 5687 5686 5685 5684 5684 5683 5682 5680 5679 5678 5677 5676 5675 5675 5674 5673 5672 5672 5671 5671 5671 5671
5701 5699 5698 5697 5694 5693 5691 5689 5687 5685 5683 5681 5682 5682 5682 5682 5682 5681 5681 5681 5680 5680 5679 5678 5677 5676 5675 5674 5673 5672 5671 5670 5669 5669 5668 5668 5668 5667
5698 5696 5694 5692 5690 5688 5686 5684 5683 5681 5678 5677 5677 5676 5676 5676 5675 5676 5676 5675 5675 5675 5675 5674 5673 5672 5671 5671 5670 5669 5668 5667 5667 5666 5665 5665 5664 5664
5695 5693 5691 5689 5687 5685 5682 5680 5678 5675 5673 5671 5671 5670 5669 5669 5668 5668 5669 5670 5670 5670 5670 5669 5668 5668 5667 5666 5666 5665 5665 5664 5663 5663 5662 5661 5661 5660
5691 5689 5688 5686 5684 5681 5679 5676 5673 5670 5668 5666 5665 5664 5664 5662 5661 5661 5661 5662 5663 5663 5663 5663 5662 5662 5662 5661 5661 5661 5660 5659 5659 5658 5658 5658 5657 5657
5686 5684 5682 5680 5679 5677 5675 5673 5670 5666 5663 5660 5660 5658 5659 5657 5656 5654 5653 5652 5654 5657 5653 5656 5654 5655 5655 5655 5656 5655 5655 5654 5654 5653 5653 5652 5652 5652
5681 5678 5677 5676 5673 5671 5669 5666 5664 5662 5659 5656 5654 5654 5653 5652 5649 5647 5646 5645 5646 5648 5644 5648 5648 5648 5649 5649 5649 5649 5649 5648 5648 5647 5647 5647 5647 5647
5675 5673 5670 5668 5666 5663 5661 5659 5658 5656 5653 5650 5649 5649 5648 5645 5642 5641 5639 5638 5639 5638 5635 5637 5642 5642 5643 5643 5643 5643 5642 5642 5641 5641 5640 5640 5640 5640
5668 5666 5663 5661 5658 5654 5652 5650 5649 5648 5646 5644 5642 5640 5639 5636 5633 5630 5628 5626 5630 5632 5628 5627 5633 5633 5635 5636 5636 5635 5634 5634 5633 5633 5633 5633 5633 5632
5659 5657 5655 5652 5649 5645 5642 5641 5639 5640 5637 5635 5633 5631 5629 5627 5624 5621 5620 5618 5619 5621 5622 5618 5621 5619 5624 5629 5627 5625 5624 5623 5623 5623 5624 5624 5624 5622
5650 5648 5646 5643 5639 5635 5632 5631 5630 5628 5625 5623 5622 5621 5619 5618 5616 5613 5610 5608 5608 5610 5612 5607 5608 5607 5607 5614 5616 5615 5612 5612 5612 5613 5614 5615 5614 5613
5641 5639 5636 5632 5628 5625 5622 5621 5618 5615 5613 5611 5610 5609 5607 5607 5606 5604 5601 5599 5598 5599 5599 5595 5595 5595 5595 5598 5602 5604 5602 5601 5600 5602 5603 5604 5605 5605
5631 5628 5624 5621 5618 5615 5612 5609 5605 5603 5600 5598 5598 5597 5596 5594 5593 5591 5590 5588 5588 5587 5586 5584 5582 5582 5581 5584 5588 5591 5591 5592 5590 5591 5592 5593 5595 5596
5617 5614 5611 5608 5605 5603 5600 5597 5594 5590 5588 5586 5585 5584 5582 5580 5579 5577 5576 5576 5576 5578 5576 5572 5570 5568 5570 5572 5574 5577 5578 5580 5582 5580 5581 5583 5585 5586
5604 5600 5598 5595 5593 5590 5587 5584 5581 5577 5574 5573 5570 5569 5567 5566 5565 5563 5561 5560 5560 5564 5565 5563 5559 5557 5557 5558 5561 5565 5567 5569 5570 5570 5569 5573 5578 5579
5590 5588 5585 5582 5579 5577 5574 5571 5568 5564 5561 5559 5556 5554 5553 5552 5551 5550 5548 5547 5547 5549 5550 5549 5547 5545 5547 5550 5550 5552 5555 5558 5560 5560 5560 5563 5570 5573
5575 5573 5570 5568 5565 5562 5559 5556 5553 5551 5547 5544 5542 5541 5539 5538 5537 5537 5535 5534 5535 5536 5537 5535 5533 5531 5535 5543 5549 5542 5543 5548 5549 5551 5552 5554 5560 5566
5560 5557 5555 5552 5549 5546 5543 5541 5539 5536 5533 5531 5529 5527 5525 5524 5524 5523 5523 5522 5523 5524 5525 5525 5523 5522 5523 5530 5536 5540 5536 5536 5539 5543 5546 5548 5551 5555
5545 5542 5539 5537 5534 5532 5529 5527 5524 5522 5519 5517 5515 5514 5512 5511 5511 5511 5511 5511 5510 5513 5515 5518 5517 5514 5515 5517 5524 5533 5534 5532 5532 5534 5538 5540 5545 5548
5530 5528 5525 5523 5521 5518 5516 5513 5511 5509 5507 5505 5504 5502 5501 5500 5500 5501 5502 5503 5504 5506 5507 5510 5510 5508 5508 5511 5518 5524 5528 5529 5529 5529 5530 5534 5537 5544
5515 5513 5511 5509 5507 5505 5503 5501 5499 5498 5497 5495 5494 5493 5492 5492 5492 5493 5494 5495 5497 5499 5501 5503 5505 5505 5506 5508 5511 5517 5521 5523 5525 5528 5531 5533 5534 5537